Time,TemperatureF,DewpointF,PressureIn,WindDirection,WindDirectionDegrees,WindSpeedMPH,WindSpeedGustMPH,Humidity,HourlyPrecipIn,Conditions,Clouds,dailyrainin,SoftwareType,DateUTC
2013-07-21 00:01:00,69.8,63.1,29.94,SW,225,0.0,0.0,79,0.00,,,0.00,WUHU21636XXSP,2013-07-21 05:01:00,
2013-07-21 00:06:00,69.6,62.9,29.93,SW,225,0.0,0.0,79,0.00,,,0.00,WUHU21636XXSP,2013-07-21 05:06:00,
2013-07-21 00:11:00,69.6,62.9,29.94,SW,225,0.0,0.0,79,0.00,,,0.00,WUHU21636XXSP,2013-07-21 05:11:00,
2013-07-21 00:16:00,69.6,62.9,29.93,SW,225,0.0,0.0,79,0.00,,,0.00,WUHU21636XXSP,2013-07-21 05:16:00,
2013-07-21 00:21:00,69.6,62.9,29.93,SW,225,0.0,0.0,79,0.00,,,0.00,WUHU21636XXSP,2013-07-21 05:21:00,
2013-07-21 00:26:00,69.6,62.9,29.93,SW,225,0.0,0.0,79,0.00,,,0.00,WUHU21636XXSP,2013-07-21 05:26:00,
2013-07-21 00:31:00,69.5,62.8,29.93,SW,225,0.0,0.0,79,0.00,,,0.00,WUHU21636XXSP,2013-07-21 05:31:00,
2013-07-21 00:36:00,69.3,62.6,29.93,SW,225,0.0,0.0,79,0.00,,,0.00,WUHU21636XXSP,2013-07-21 05:36:00,
2013-07-21 00:41:00,69.3,62.9,29.92,SW,225,0.0,0.0,80,0.00,,,0.00,WUHU21636XXSP,2013-07-21 05:41:00,
2013-07-21 00:46:00,69.1,62.7,29.93,SW,225,0.0,0.0,80,0.00,,,0.00,WUHU21636XXSP,2013-07-21 05:46:00,
2013-07-21 00:51:00,69.1,62.7,29.92,SW,225,0.0,0.0,80,0.00,,,0.00,WUHU21636XXSP,2013-07-21 05:51:00,
2013-07-21 00:56:00,68.9,62.5,29.92,SW,225,0.0,0.0,80,0.00,,,0.00,WUHU21636XXSP,2013-07-21 05:56:00,
2013-07-21 01:01:00,68.9,62.5,29.92,SW,225,0.0,0.0,80,0.00,,,0.00,WUHU21636XXSP,2013-07-21 06:01:00,
2013-07-21 01:06:00,68.7,62.3,29.93,SW,225,0.0,0.0,80,0.00,,,0.00,WUHU21636XXSP,2013-07-21 06:06:00,
2013-07-21 01:11:00,68.7,62.3,29.93,SW,225,0.0,0.0,80,0.00,,,0.00,WUHU21636XXSP,2013-07-21 06:11:00,
2013-07-21 01:16:00,68.7,62.3,29.93,SW,225,0.0,0.0,80,0.00,,,0.00,WUHU21636XXSP,2013-07-21 06:16:00,
2013-07-21 01:21:00,68.7,62.3,29.93,SW,225,0.0,0.0,80,0.00,,,0.00,WUHU21636XXSP,2013-07-21 06:21:00,
2013-07-21 01:26:00,68.6,62.2,29.93,SW,225,0.0,0.0,80,0.00,,,0.00,WUHU21636XXSP,2013-07-21 06:26:00,
2013-07-21 01:31:00,68.6,62.2,29.93,SW,225,0.0,0.0,80,0.00,,,0.00,WUHU21636XXSP,2013-07-21 06:31:00,
2013-07-21 01:36:00,68.4,62.0,29.93,SW,225,0.0,0.0,80,0.00,,,0.00,WUHU21636XXSP,2013-07-21 06:36:00,
2013-07-21 01:41:00,68.4,62.0,29.93,SW,225,0.0,0.0,80,0.00,,,0.00,WUHU21636XXSP,2013-07-21 06:41:00,
2013-07-21 01:46:00,68.4,62.0,29.93,SW,225,0.0,0.0,80,0.00,,,0.00,WUHU21636XXSP,2013-07-21 06:46:00,
2013-07-21 01:51:00,67.9,61.6,29.93,SW,225,0.0,0.0,80,0.00,,,0.00,WUHU21636XXSP,2013-07-21 06:51:00,
2013-07-21 01:56:00,67.9,61.6,29.92,SW,225,0.0,0.0,80,0.00,,,0.00,WUHU21636XXSP,2013-07-21 06:56:00,
2013-07-21 02:01:00,67.9,61.6,29.92,SW,225,0.0,0.0,80,0.00,,,0.00,WUHU21636XXSP,2013-07-21 07:01:00,
2013-07-21 02:06:00,67.7,61.4,29.92,SW,225,0.0,0.0,80,0.00,,,0.00,WUHU21636XXSP,2013-07-21 07:06:00,
2013-07-21 02:11:00,67.7,61.7,29.92,SW,225,0.0,0.0,81,0.00,,,0.00,WUHU21636XXSP,2013-07-21 07:11:00,
2013-07-21 02:16:00,67.7,61.7,29.92,SW,225,0.0,0.0,81,0.00,,,0.00,WUHU21636XXSP,2013-07-21 07:16:00,
2013-07-21 02:21:00,67.6,61.6,29.92,SW,225,0.0,0.0,81,0.00,,,0.00,WUHU21636XXSP,2013-07-21 07:21:00,
2013-07-21 02:26:00,67.4,61.4,29.92,SW,225,0.0,0.0,81,0.00,,,0.00,WUHU21636XXSP,2013-07-21 07:26:00,
2013-07-21 02:31:00,67.4,61.4,29.92,SW,225,0.0,0.0,81,0.00,,,0.00,WUHU21636XXSP,2013-07-21 07:31:00,
2013-07-21 02:36:00,67.2,61.2,29.92,SW,225,0.0,0.0,81,0.00,,,0.00,WUHU21636XXSP,2013-07-21 07:36:00,
2013-07-21 02:41:00,67.2,61.2,29.92,SW,225,0.0,0.0,81,0.00,,,0.00,WUHU21636XXSP,2013-07-21 07:41:00,
2013-07-21 02:46:00,67.0,61.0,29.92,SW,225,0.0,0.0,81,0.00,,,0.00,WUHU21636XXSP,2013-07-21 07:46:00,
2013-07-21 02:51:00,67.0,61.0,29.92,SW,225,0.0,0.0,81,0.00,,,0.00,WUHU21636XXSP,2013-07-21 07:51:00,
2013-07-21 02:56:00,66.8,60.8,29.92,SW,225,0.0,0.0,81,0.00,,,0.00,WUHU21636XXSP,2013-07-21 07:56:00,
2013-07-21 03:01:00,66.8,60.8,29.92,SW,225,0.0,0.0,81,0.00,,,0.00,WUHU21636XXSP,2013-07-21 08:01:00,
2013-07-21 03:06:00,66.8,60.8,29.92,SW,225,0.0,0.0,81,0.00,,,0.00,WUHU21636XXSP,2013-07-21 08:06:00,
2013-07-21 03:11:00,66.7,60.7,29.92,SW,225,0.0,0.0,81,0.00,,,0.00,WUHU21636XXSP,2013-07-21 08:11:00,
2013-07-21 03:16:00,66.7,61.1,29.92,SW,225,0.0,0.0,82,0.00,,,0.00,WUHU21636XXSP,2013-07-21 08:16:00,
2013-07-21 03:21:00,66.5,60.5,29.92,SW,225,0.0,0.0,81,0.00,,,0.00,WUHU21636XXSP,2013-07-21 08:21:00,
2013-07-21 03:26:00,66.5,60.5,29.92,SW,225,0.0,0.0,81,0.00,,,0.00,WUHU21636XXSP,2013-07-21 08:26:00,
2013-07-21 03:31:00,66.5,60.9,29.92,SW,225,0.0,0.0,82,0.00,,,0.00,WUHU21636XXSP,2013-07-21 08:31:00,
2013-07-21 03:36:00,66.5,60.9,29.92,SW,225,0.0,0.0,82,0.00,,,0.00,WUHU21636XXSP,2013-07-21 08:36:00,
2013-07-21 03:41:00,66.5,60.9,29.91,SW,225,0.0,0.0,82,0.00,,,0.00,WUHU21636XXSP,2013-07-21 08:41:00,
2013-07-21 03:46:00,66.3,60.6,29.91,SW,225,0.0,0.0,82,0.00,,,0.00,WUHU21636XXSP,2013-07-21 08:46:00,
2013-07-21 03:51:00,66.3,60.6,29.91,SW,225,0.0,0.0,82,0.00,,,0.00,WUHU21636XXSP,2013-07-21 08:51:00,
2013-07-21 03:56:00,66.0,60.4,29.91,SW,225,0.0,0.0,82,0.00,,,0.00,WUHU21636XXSP,2013-07-21 08:56:00,
2013-07-21 04:01:00,66.5,61.2,29.91,SW,225,0.0,0.0,83,0.00,,,0.00,WUHU21636XXSP,2013-07-21 09:01:00,
2013-07-21 04:06:00,66.5,61.2,29.92,WSW,247,0.0,0.0,83,0.00,,,0.00,WUHU21636XXSP,2013-07-21 09:06:00,
2013-07-21 04:11:00,66.5,61.2,29.91,NE,45,0.0,0.0,83,0.00,,,0.00,WUHU21636XXSP,2013-07-21 09:11:00,
2013-07-21 04:16:00,66.5,61.2,29.91,SSW,202,0.0,0.0,83,0.00,,,0.00,WUHU21636XXSP,2013-07-21 09:16:00,
2013-07-21 04:21:00,66.7,61.4,29.91,WSW,247,0.0,0.0,83,0.00,,,0.00,WUHU21636XXSP,2013-07-21 09:21:00,
2013-07-21 04:27:00,66.7,61.4,29.92,SW,225,0.0,0.0,83,0.00,,,0.00,WUHU21636XXSP,2013-07-21 09:27:00,
2013-07-21 04:32:00,66.7,61.4,29.92,South,180,0.0,0.0,83,0.00,,,0.00,WUHU21636XXSP,2013-07-21 09:32:00,
2013-07-21 04:37:00,66.8,61.5,29.93,South,180,0.0,0.0,83,0.00,,,0.00,WUHU21636XXSP,2013-07-21 09:37:00,
2013-07-21 04:42:00,66.8,61.5,29.92,NE,45,0.0,0.0,83,0.00,,,0.00,WUHU21636XXSP,2013-07-21 09:42:00,
2013-07-21 04:47:00,66.8,61.5,29.92,ESE,112,0.0,0.0,83,0.00,,,0.00,WUHU21636XXSP,2013-07-21 09:47:00,
2013-07-21 04:52:00,66.8,61.5,29.92,SE,135,0.0,0.0,83,0.00,,,0.00,WUHU21636XXSP,2013-07-21 09:52:00,
2013-07-21 04:57:00,66.8,61.5,29.93,ENE,67,0.0,0.0,83,0.00,,,0.00,WUHU21636XXSP,2013-07-21 09:57:00,
2013-07-21 05:02:00,66.8,61.5,29.92,ENE,67,3.0,3.0,83,0.00,,,0.00,WUHU21636XXSP,2013-07-21 10:02:00,
2013-07-21 05:07:00,66.8,61.5,29.92,SSW,202,0.0,3.0,83,0.00,,,0.00,WUHU21636XXSP,2013-07-21 10:07:00,
2013-07-21 05:12:00,66.8,61.5,29.92,NNE,22,0.8,0.8,83,0.00,,,0.00,WUHU21636XXSP,2013-07-21 10:12:00,
2013-07-21 05:17:00,66.8,61.5,29.92,SE,135,0.0,0.8,83,0.00,,,0.00,WUHU21636XXSP,2013-07-21 10:17:00,
2013-07-21 05:22:00,66.8,61.5,29.92,ENE,67,0.0,0.8,83,0.00,,,0.00,WUHU21636XXSP,2013-07-21 10:22:00,
2013-07-21 05:27:00,66.8,61.5,29.93,North,0,0.0,0.0,83,0.00,,,0.00,WUHU21636XXSP,2013-07-21 10:27:00,
2013-07-21 05:32:00,66.8,61.5,29.92,NE,45,4.8,4.8,83,0.00,,,0.00,WUHU21636XXSP,2013-07-21 10:32:00,
2013-07-21 05:37:00,66.8,61.5,29.92,WNW,292,0.0,4.8,83,0.00,,,0.00,WUHU21636XXSP,2013-07-21 10:37:00,
2013-07-21 05:42:00,66.8,61.5,29.93,WNW,292,0.0,0.0,83,0.00,,,0.00,WUHU21636XXSP,2013-07-21 10:42:00,
2013-07-21 05:47:00,66.8,61.5,29.92,SSE,157,0.0,0.0,83,0.00,,,0.00,WUHU21636XXSP,2013-07-21 10:47:00,
2013-07-21 05:52:00,66.8,61.5,29.92,WSW,247,0.0,0.0,83,0.00,,,0.00,WUHU21636XXSP,2013-07-21 10:52:00,
2013-07-21 05:57:00,66.7,61.4,29.92,WSW,247,0.0,0.0,83,0.00,,,0.00,WUHU21636XXSP,2013-07-21 10:57:00,
2013-07-21 06:02:00,66.8,61.5,29.92,SSW,202,0.0,0.0,83,0.00,,,0.00,WUHU21636XXSP,2013-07-21 11:02:00,
2013-07-21 06:07:00,66.7,61.4,29.93,ESE,112,0.0,0.0,83,0.00,,,0.00,WUHU21636XXSP,2013-07-21 11:07:00,
2013-07-21 06:12:00,66.7,61.4,29.93,ENE,67,0.0,0.0,83,0.00,,,0.00,WUHU21636XXSP,2013-07-21 11:12:00,
2013-07-21 06:17:00,66.7,61.4,29.93,SE,135,0.0,0.0,83,0.00,,,0.00,WUHU21636XXSP,2013-07-21 11:17:00,
2013-07-21 06:22:00,66.7,61.4,29.93,ESE,112,0.0,0.0,83,0.00,,,0.00,WUHU21636XXSP,2013-07-21 11:22:00,
2013-07-21 06:27:00,66.7,61.4,29.92,WSW,247,3.0,3.0,83,0.00,,,0.00,WUHU21636XXSP,2013-07-21 11:27:00,
2013-07-21 06:32:00,66.5,61.2,29.93,ENE,67,0.0,3.0,83,0.00,,,0.00,WUHU21636XXSP,2013-07-21 11:32:00,
2013-07-21 06:37:00,66.5,61.2,29.93,NNE,22,0.0,3.0,83,0.00,,,0.00,WUHU21636XXSP,2013-07-21 11:37:00,
2013-07-21 06:42:00,66.7,61.4,29.93,WSW,247,0.0,0.0,83,0.00,,,0.00,WUHU21636XXSP,2013-07-21 11:42:00,
2013-07-21 06:47:00,66.5,61.2,29.93,SSW,202,0.0,0.0,83,0.00,,,0.00,WUHU21636XXSP,2013-07-21 11:47:00,
2013-07-21 06:52:00,66.5,61.2,29.93,NNW,337,0.0,0.0,83,0.00,,,0.00,WUHU21636XXSP,2013-07-21 11:52:00,
2013-07-21 06:57:00,66.7,61.4,29.93,ESE,112,0.0,0.0,83,0.00,,,0.00,WUHU21636XXSP,2013-07-21 11:57:00,
2013-07-21 07:02:00,66.5,61.2,29.93,ESE,112,0.0,0.0,83,0.00,,,0.00,WUHU21636XXSP,2013-07-21 12:02:00,
2013-07-21 07:07:00,66.7,61.4,29.93,ENE,67,0.0,4.4,83,0.00,,,0.00,WUHU21636XXSP,2013-07-21 12:07:00,
2013-07-21 07:12:00,66.7,61.1,29.93,ENE,67,0.0,4.4,82,0.00,,,0.00,WUHU21636XXSP,2013-07-21 12:12:00,
2013-07-21 07:17:00,66.7,61.1,29.93,ENE,67,0.0,0.0,82,0.00,,,0.00,WUHU21636XXSP,2013-07-21 12:17:00,
2013-07-21 07:22:00,66.7,61.1,29.93,ENE,67,0.0,0.0,82,0.00,,,0.00,WUHU21636XXSP,2013-07-21 12:22:00,
2013-07-21 07:27:00,66.8,60.8,29.93,ENE,67,0.0,0.0,81,0.00,,,0.00,WUHU21636XXSP,2013-07-21 12:27:00,
2013-07-21 07:32:00,66.8,60.8,29.93,ENE,67,0.0,0.0,81,0.00,,,0.00,WUHU21636XXSP,2013-07-21 12:32:00,
2013-07-21 07:37:00,66.8,60.8,29.93,ENE,67,0.0,0.0,81,0.00,,,0.00,WUHU21636XXSP,2013-07-21 12:37:00,
2013-07-21 07:42:00,67.0,61.0,29.93,East,90,0.0,0.0,81,0.00,,,0.00,WUHU21636XXSP,2013-07-21 12:42:00,
2013-07-21 07:47:00,67.0,61.0,29.93,SSW,202,4.8,4.8,81,0.00,,,0.00,WUHU21636XXSP,2013-07-21 12:47:00,
2013-07-21 07:52:00,67.0,60.7,29.93,NNE,22,0.0,4.8,80,0.00,,,0.00,WUHU21636XXSP,2013-07-21 12:52:00,
2013-07-21 07:57:00,67.0,60.7,29.93,WSW,247,0.0,4.8,80,0.00,,,0.00,WUHU21636XXSP,2013-07-21 12:57:00,
2013-07-21 08:02:00,67.0,60.7,29.94,SSE,157,0.0,0.0,80,0.00,,,0.00,WUHU21636XXSP,2013-07-21 13:02:00,
2013-07-21 08:07:00,67.0,60.3,29.93,NNE,22,0.0,4.0,79,0.00,,,0.00,WUHU21636XXSP,2013-07-21 13:07:00,
2013-07-21 08:12:00,67.0,60.3,29.93,SE,135,2.2,4.0,79,0.00,,,0.00,WUHU21636XXSP,2013-07-21 13:12:00,
2013-07-21 08:17:00,67.0,60.3,29.93,WSW,247,0.0,2.2,79,0.00,,,0.00,WUHU21636XXSP,2013-07-21 13:17:00,
2013-07-21 08:22:00,67.0,60.3,29.93,SSW,202,0.0,2.2,79,0.00,,,0.00,WUHU21636XXSP,2013-07-21 13:22:00,
2013-07-21 08:27:00,67.4,60.8,29.93,SE,135,6.2,6.2,79,0.00,,,0.00,WUHU21636XXSP,2013-07-21 13:27:00,
2013-07-21 08:32:00,67.4,60.8,29.93,SSE,157,0.0,6.2,79,0.00,,,0.00,WUHU21636XXSP,2013-07-21 13:32:00,
2013-07-21 08:37:00,67.4,60.4,29.93,ENE,67,4.8,4.8,78,0.00,,,0.00,WUHU21636XXSP,2013-07-21 13:37:00,
2013-07-21 08:42:00,67.7,61.1,29.93,East,90,4.4,4.8,79,0.00,,,0.00,WUHU21636XXSP,2013-07-21 13:42:00,
2013-07-21 08:47:00,67.7,60.7,29.94,SSW,202,0.0,4.4,78,0.00,,,0.00,WUHU21636XXSP,2013-07-21 13:47:00,
2013-07-21 08:52:00,67.9,61.3,29.94,ESE,112,0.0,0.0,79,0.00,,,0.00,WUHU21636XXSP,2013-07-21 13:52:00,
2013-07-21 08:57:00,67.9,60.9,29.93,ESE,112,0.0,0.0,78,0.00,,,0.00,WUHU21636XXSP,2013-07-21 13:57:00,
2013-07-21 09:02:00,68.4,61.3,29.94,ESE,112,0.0,0.0,78,0.00,,,0.00,WUHU21636XXSP,2013-07-21 14:02:00,
2013-07-21 09:07:00,68.4,61.7,29.94,ESE,112,0.0,0.0,79,0.00,,,0.00,WUHU21636XXSP,2013-07-21 14:07:00,
2013-07-21 09:12:00,68.6,61.5,29.94,SSW,202,0.0,0.0,78,0.00,,,0.00,WUHU21636XXSP,2013-07-21 14:12:00,
2013-07-21 09:17:00,68.7,61.6,29.94,East,90,5.2,5.2,78,0.00,,,0.00,WUHU21636XXSP,2013-07-21 14:17:00,
2013-07-21 09:22:00,68.9,61.8,29.94,East,90,0.0,5.2,78,0.00,,,0.00,WUHU21636XXSP,2013-07-21 14:22:00,
2013-07-21 09:27:00,69.3,62.2,29.94,ENE,67,6.6,6.6,78,0.00,,,0.00,WUHU21636XXSP,2013-07-21 14:27:00,
2013-07-21 09:32:00,69.3,61.9,29.94,ENE,67,0.0,6.6,77,0.00,,,0.00,WUHU21636XXSP,2013-07-21 14:32:00,
2013-07-21 09:37:00,69.1,61.7,29.94,East,90,0.0,0.0,77,0.00,,,0.00,WUHU21636XXSP,2013-07-21 14:37:00,
2013-07-21 09:42:00,69.3,62.2,29.94,NNW,337,0.0,0.0,78,0.00,,,0.00,WUHU21636XXSP,2013-07-21 14:42:00,
2013-07-21 09:47:00,69.3,61.9,29.94,NNW,337,0.0,0.0,77,0.00,,,0.00,WUHU21636XXSP,2013-07-21 14:47:00,
2013-07-21 09:52:00,69.6,62.2,29.94,NNW,337,0.0,0.0,77,0.00,,,0.00,WUHU21636XXSP,2013-07-21 14:52:00,
2013-07-21 09:57:00,69.6,62.2,29.94,NNE,22,0.0,0.0,77,0.00,,,0.00,WUHU21636XXSP,2013-07-21 14:57:00,
2013-07-21 10:02:00,69.6,62.2,29.94,NNE,22,0.0,0.0,77,0.00,,,0.00,WUHU21636XXSP,2013-07-21 15:02:00,
2013-07-21 10:07:00,69.6,62.2,29.94,NNE,22,0.0,0.0,77,0.00,,,0.00,WUHU21636XXSP,2013-07-21 15:07:00,
2013-07-21 10:12:00,69.6,62.6,29.94,ENE,67,0.0,0.0,78,0.00,,,0.00,WUHU21636XXSP,2013-07-21 15:12:00,
2013-07-21 10:17:00,69.6,62.2,29.94,East,90,0.0,0.0,77,0.00,,,0.00,WUHU21636XXSP,2013-07-21 15:17:00,
2013-07-21 10:22:00,69.6,62.6,29.94,East,90,0.8,0.8,78,0.00,,,0.00,WUHU21636XXSP,2013-07-21 15:22:00,
2013-07-21 10:27:00,69.8,62.4,29.94,East,90,0.0,0.8,77,0.00,,,0.00,WUHU21636XXSP,2013-07-21 15:27:00,
2013-07-21 10:32:00,69.8,62.4,29.94,East,90,0.0,0.0,77,0.00,,,0.00,WUHU21636XXSP,2013-07-21 15:32:00,
2013-07-21 10:37:00,70.2,63.2,29.94,East,90,0.0,0.0,78,0.00,,,0.00,WUHU21636XXSP,2013-07-21 15:37:00,
2013-07-21 10:42:00,70.5,63.4,29.95,East,90,0.0,0.0,78,0.00,,,0.00,WUHU21636XXSP,2013-07-21 15:42:00,
2013-07-21 10:47:00,70.6,63.5,29.96,North,0,0.0,0.0,78,0.00,,,0.00,WUHU21636XXSP,2013-07-21 15:47:00,
2013-07-21 10:52:00,70.5,63.7,29.95,East,90,0.0,0.0,79,0.00,,,0.00,WUHU21636XXSP,2013-07-21 15:52:00,
2013-07-21 10:57:00,70.2,63.5,29.94,East,90,0.0,0.0,79,0.00,,,0.00,WUHU21636XXSP,2013-07-21 15:57:00,
2013-07-21 11:02:00,70.5,63.7,29.94,ESE,112,0.0,0.0,79,0.00,,,0.00,WUHU21636XXSP,2013-07-21 16:02:00,
2013-07-21 11:07:00,70.5,63.4,29.94,ESE,112,0.0,0.0,78,0.00,,,0.00,WUHU21636XXSP,2013-07-21 16:07:00,
2013-07-21 11:12:00,70.5,63.4,29.93,SE,135,0.0,0.0,78,0.00,,,0.00,WUHU21636XXSP,2013-07-21 16:12:00,
2013-07-21 11:17:00,70.6,63.5,29.92,SE,135,0.0,0.0,78,0.00,,,0.00,WUHU21636XXSP,2013-07-21 16:17:00,
2013-07-21 11:22:00,71.0,63.5,29.92,WNW,292,0.0,1.6,77,0.00,,,0.00,WUHU21636XXSP,2013-07-21 16:22:00,
2013-07-21 11:27:00,71.0,63.5,29.92,SW,225,0.0,1.6,77,0.00,,,0.00,WUHU21636XXSP,2013-07-21 16:27:00,
2013-07-21 11:32:00,71.0,63.5,29.93,SW,225,0.0,0.0,77,0.00,,,0.00,WUHU21636XXSP,2013-07-21 16:32:00,
2013-07-21 11:37:00,71.2,63.7,29.93,WSW,247,0.0,0.0,77,0.00,,,0.00,WUHU21636XXSP,2013-07-21 16:37:00,
2013-07-21 11:42:00,71.5,64.0,29.94,WSW,247,0.0,0.0,77,0.00,,,0.00,WUHU21636XXSP,2013-07-21 16:42:00,
2013-07-21 11:47:00,71.5,64.0,29.94,SW,225,0.0,0.0,77,0.00,,,0.00,WUHU21636XXSP,2013-07-21 16:47:00,
2013-07-21 11:52:00,71.7,63.9,29.94,SSW,202,0.0,0.0,76,0.00,,,0.00,WUHU21636XXSP,2013-07-21 16:52:00,
2013-07-21 11:57:00,71.7,64.2,29.94,South,180,0.0,0.0,77,0.00,,,0.00,WUHU21636XXSP,2013-07-21 16:57:00,
2013-07-21 12:02:00,71.9,64.4,29.94,WSW,247,0.0,0.0,77,0.00,,,0.00,WUHU21636XXSP,2013-07-21 17:02:00,
2013-07-21 12:07:00,72.1,65.0,29.93,SW,225,0.0,0.0,78,0.00,,,0.00,WUHU21636XXSP,2013-07-21 17:07:00,
2013-07-21 12:12:00,72.4,65.3,29.93,ESE,112,0.8,0.8,78,0.00,,,0.00,WUHU21636XXSP,2013-07-21 17:12:00,
2013-07-21 12:17:00,72.9,65.4,29.93,East,90,0.0,0.8,77,0.00,,,0.00,WUHU21636XXSP,2013-07-21 17:17:00,
2013-07-21 12:22:00,73.4,65.5,29.94,SE,135,4.8,4.8,76,0.00,,,0.00,WUHU21636XXSP,2013-07-21 17:22:00,
2013-07-21 12:27:00,73.4,65.5,29.94,SE,135,0.0,4.8,76,0.00,,,0.00,WUHU21636XXSP,2013-07-21 17:27:00,
2013-07-21 12:32:00,73.6,65.7,29.94,SE,135,0.0,4.8,76,0.00,,,0.00,WUHU21636XXSP,2013-07-21 17:32:00,
2013-07-21 12:37:00,73.6,65.7,29.94,North,0,0.0,0.0,76,0.00,,,0.00,WUHU21636XXSP,2013-07-21 17:37:00,
2013-07-21 12:42:00,73.6,65.7,29.94,ESE,112,0.0,4.4,76,0.00,,,0.00,WUHU21636XXSP,2013-07-21 17:42:00,
2013-07-21 12:47:00,73.4,65.5,29.95,ESE,112,0.0,4.4,76,0.00,,,0.00,WUHU21636XXSP,2013-07-21 17:47:00,
2013-07-21 12:52:00,73.4,65.5,29.95,ESE,112,0.0,0.0,76,0.00,,,0.00,WUHU21636XXSP,2013-07-21 17:52:00,
2013-07-21 12:57:00,73.1,65.2,29.95,SE,135,0.0,0.0,76,0.00,,,0.00,WUHU21636XXSP,2013-07-21 17:57:00,
2013-07-21 13:02:00,73.1,65.2,29.95,WNW,292,0.0,0.0,76,0.00,,,0.00,WUHU21636XXSP,2013-07-21 18:02:00,
2013-07-21 13:07:00,72.7,64.8,29.95,NNE,22,0.0,0.0,76,0.00,,,0.00,WUHU21636XXSP,2013-07-21 18:07:00,
2013-07-21 13:12:00,72.4,64.2,29.95,South,180,0.0,0.0,75,0.00,,,0.00,WUHU21636XXSP,2013-07-21 18:12:00,
2013-07-21 13:17:00,72.1,64.3,29.96,South,180,0.0,0.0,76,0.00,,,0.00,WUHU21636XXSP,2013-07-21 18:17:00,
2013-07-21 13:22:00,71.7,64.2,29.96,WSW,247,0.0,0.0,77,0.00,,,0.00,WUHU21636XXSP,2013-07-21 18:22:00,
2013-07-21 13:27:00,71.5,64.0,29.96,West,270,0.0,0.0,77,0.00,,,0.00,WUHU21636XXSP,2013-07-21 18:27:00,
2013-07-21 13:32:00,71.2,63.4,29.97,NE,45,0.0,0.0,76,0.00,,,0.00,WUHU21636XXSP,2013-07-21 18:32:00,
2013-07-21 13:37:00,70.8,63.0,29.96,NW,315,0.0,0.0,76,0.00,,,0.00,WUHU21636XXSP,2013-07-21 18:37:00,
2013-07-21 13:42:00,70.5,63.0,29.96,WSW,247,0.0,0.0,77,0.00,,,0.00,WUHU21636XXSP,2013-07-21 18:42:00,
2013-07-21 13:47:00,70.2,62.8,29.96,SE,135,0.0,0.0,77,0.00,,,0.00,WUHU21636XXSP,2013-07-21 18:47:00,
2013-07-21 13:52:00,69.6,62.9,29.95,SE,135,0.0,0.0,79,0.00,,,0.00,WUHU21636XXSP,2013-07-21 18:52:00,
2013-07-21 13:57:00,70.2,63.5,29.94,East,90,0.0,0.0,79,0.00,,,0.00,WUHU21636XXSP,2013-07-21 18:57:00,
2013-07-21 14:02:00,70.5,63.7,29.93,WSW,247,0.0,0.0,79,0.00,,,0.00,WUHU21636XXSP,2013-07-21 19:02:00,
2013-07-21 14:07:00,70.8,64.0,29.92,East,90,0.0,0.0,79,0.00,,,0.00,WUHU21636XXSP,2013-07-21 19:07:00,
2013-07-21 14:12:00,70.8,63.7,29.92,South,180,2.6,2.6,78,0.00,,,0.00,WUHU21636XXSP,2013-07-21 19:12:00,
2013-07-21 14:17:00,71.0,64.2,29.92,SE,135,0.0,2.6,79,0.00,,,0.00,WUHU21636XXSP,2013-07-21 19:17:00,
2013-07-21 14:22:00,71.2,63.7,29.92,WSW,247,0.0,2.6,77,0.00,,,0.00,WUHU21636XXSP,2013-07-21 19:22:00,
2013-07-21 14:27:00,71.5,64.4,29.92,SSW,202,0.0,0.0,78,0.00,,,0.00,WUHU21636XXSP,2013-07-21 19:27:00,
2013-07-21 14:32:00,71.9,64.8,29.92,WNW,292,0.0,0.0,78,0.00,,,0.00,WUHU21636XXSP,2013-07-21 19:32:00,
2013-07-21 14:37:00,72.1,64.6,29.92,SSE,157,0.0,0.0,77,0.00,,,0.00,WUHU21636XXSP,2013-07-21 19:37:00,
2013-07-21 14:42:00,72.4,64.2,29.92,SSE,157,1.2,1.2,75,0.00,,,0.00,WUHU21636XXSP,2013-07-21 19:42:00,
2013-07-21 14:47:00,72.4,63.8,29.92,SSE,157,0.0,1.2,74,0.00,,,0.00,WUHU21636XXSP,2013-07-21 19:47:00,
2013-07-21 14:52:00,72.7,64.1,29.92,SE,135,0.0,1.2,74,0.00,,,0.00,WUHU21636XXSP,2013-07-21 19:52:00,
2013-07-21 14:57:00,72.7,63.7,29.92,SSE,157,0.0,0.8,73,0.00,,,0.00,WUHU21636XXSP,2013-07-21 19:57:00,
2013-07-21 15:02:00,72.9,63.9,29.91,ESE,112,0.0,0.0,73,0.00,,,0.00,WUHU21636XXSP,2013-07-21 20:02:00,
2013-07-21 15:07:00,73.1,63.7,29.92,SSE,157,0.0,0.0,72,0.00,,,0.00,WUHU21636XXSP,2013-07-21 20:07:00,
2013-07-21 15:12:00,72.9,63.5,29.91,SSW,202,0.0,0.0,72,0.00,,,0.00,WUHU21636XXSP,2013-07-21 20:12:00,
2013-07-21 15:17:00,72.9,64.3,29.91,SW,225,0.0,0.0,74,0.00,,,0.00,WUHU21636XXSP,2013-07-21 20:17:00,
2013-07-21 15:22:00,73.1,64.1,29.91,SSW,202,0.0,0.0,73,0.00,,,0.00,WUHU21636XXSP,2013-07-21 20:22:00,
2013-07-21 15:27:00,73.3,64.3,29.90,South,180,0.0,0.0,73,0.00,,,0.00,WUHU21636XXSP,2013-07-21 20:27:00,
2013-07-21 15:32:00,73.4,64.0,29.89,WSW,247,1.2,1.2,72,0.00,,,0.00,WUHU21636XXSP,2013-07-21 20:32:00,
2013-07-21 15:37:00,73.8,64.4,29.89,SSE,157,0.0,3.4,72,0.00,,,0.00,WUHU21636XXSP,2013-07-21 20:37:00,
2013-07-21 15:42:00,74.8,64.5,29.88,WNW,292,0.0,3.4,70,0.00,,,0.00,WUHU21636XXSP,2013-07-21 20:42:00,
2013-07-21 15:47:00,75.0,64.7,29.88,SSE,157,8.8,8.8,70,0.00,,,0.00,WUHU21636XXSP,2013-07-21 20:47:00,
2013-07-21 15:52:00,75.3,64.6,29.88,SE,135,2.6,8.8,69,0.00,,,0.00,WUHU21636XXSP,2013-07-21 20:52:00,
2013-07-21 15:57:00,75.7,64.6,29.88,ESE,112,0.0,8.8,68,0.00,,,0.00,WUHU21636XXSP,2013-07-21 20:57:00,
2013-07-21 16:02:00,75.5,64.8,29.88,SSE,157,0.0,0.0,69,0.00,,,0.00,WUHU21636XXSP,2013-07-21 21:02:00,
2013-07-21 16:07:00,75.3,64.2,29.88,NNE,22,0.0,0.0,68,0.00,,,0.00,WUHU21636XXSP,2013-07-21 21:07:00,
2013-07-21 16:12:00,75.0,64.3,29.88,SE,135,0.0,0.0,69,0.00,,,0.00,WUHU21636XXSP,2013-07-21 21:12:00,
2013-07-21 16:17:00,74.8,64.5,29.88,SSE,157,0.0,0.0,70,0.00,,,0.00,WUHU21636XXSP,2013-07-21 21:17:00,
2013-07-21 16:22:00,74.8,64.5,29.89,North,0,0.0,0.0,70,0.00,,,0.00,WUHU21636XXSP,2013-07-21 21:22:00,
2013-07-21 16:27:00,75.0,64.7,29.89,East,90,0.0,0.0,70,0.00,,,0.00,WUHU21636XXSP,2013-07-21 21:27:00,
2013-07-21 16:32:00,75.3,64.6,29.89,West,270,0.0,0.0,69,0.00,,,0.00,WUHU21636XXSP,2013-07-21 21:32:00,
2013-07-21 16:37:00,75.3,64.2,29.89,SW,225,2.6,2.6,68,0.00,,,0.00,WUHU21636XXSP,2013-07-21 21:37:00,
2013-07-21 16:42:00,75.3,64.2,29.90,SE,135,0.0,2.6,68,0.00,,,0.00,WUHU21636XXSP,2013-07-21 21:42:00,
2013-07-21 16:47:00,75.3,63.8,29.90,ESE,112,4.4,4.4,67,0.00,,,0.00,WUHU21636XXSP,2013-07-21 21:47:00,
2013-07-21 16:52:00,74.8,63.3,29.90,ESE,112,0.0,4.4,67,0.00,,,0.00,WUHU21636XXSP,2013-07-21 21:52:00,
2013-07-21 16:57:00,74.6,63.1,29.90,West,270,0.0,4.4,67,0.00,,,0.00,WUHU21636XXSP,2013-07-21 21:57:00,
2013-07-21 17:02:00,74.2,63.2,29.90,SSW,202,0.8,0.8,68,0.00,,,0.00,WUHU21636XXSP,2013-07-21 22:02:00,
2013-07-21 17:07:00,74.0,63.0,29.90,SSE,157,0.0,0.8,68,0.00,,,0.00,WUHU21636XXSP,2013-07-21 22:07:00,
2013-07-21 17:12:00,73.6,63.0,29.91,NNW,337,0.0,0.0,69,0.00,,,0.00,WUHU21636XXSP,2013-07-21 22:12:00,
2013-07-21 17:17:00,73.4,62.8,29.90,WNW,292,2.6,2.6,69,0.00,,,0.00,WUHU21636XXSP,2013-07-21 22:17:00,
2013-07-21 17:22:00,73.1,62.9,29.90,West,270,0.0,2.6,70,0.00,,,0.00,WUHU21636XXSP,2013-07-21 22:22:00,
2013-07-21 17:27:00,73.1,63.7,29.90,ENE,67,3.0,3.0,72,0.00,,,0.00,WUHU21636XXSP,2013-07-21 22:27:00,
2013-07-21 17:32:00,72.7,62.9,29.89,ENE,67,8.4,8.4,71,0.00,,,0.00,WUHU21636XXSP,2013-07-21 22:32:00,
2013-07-21 17:37:00,72.3,62.6,29.89,NE,45,0.0,8.4,71,0.00,,,0.00,WUHU21636XXSP,2013-07-21 22:37:00,
2013-07-21 17:42:00,71.9,62.2,29.89,ESE,112,0.0,0.8,71,0.00,,,0.00,WUHU21636XXSP,2013-07-21 22:42:00,
2013-07-21 17:48:00,71.7,62.0,29.89,East,90,2.2,14.2,71,0.00,,,0.00,WUHU21636XXSP,2013-07-21 22:48:00,
2013-07-21 17:52:00,71.7,61.6,29.87,SE,135,6.6,14.2,70,0.00,,,0.00,WUHU21636XXSP,2013-07-21 22:52:00,
2013-07-21 17:58:00,71.7,62.0,29.88,ESE,112,0.0,6.6,71,0.00,,,0.00,WUHU21636XXSP,2013-07-21 22:58:00,
2013-07-21 18:03:00,72.3,61.8,29.87,WSW,247,4.4,4.4,69,0.00,,,0.00,WUHU21636XXSP,2013-07-21 23:03:00,
2013-07-21 18:08:00,72.4,61.9,29.87,ESE,112,0.0,4.4,69,0.00,,,0.00,WUHU21636XXSP,2013-07-21 23:08:00,
2013-07-21 18:13:00,72.9,61.9,29.87,WSW,247,4.8,4.8,68,0.00,,,0.00,WUHU21636XXSP,2013-07-21 23:13:00,
2013-07-21 18:18:00,73.1,62.1,29.87,ENE,67,0.0,4.8,68,0.00,,,0.00,WUHU21636XXSP,2013-07-21 23:18:00,
2013-07-21 18:23:00,73.4,61.6,29.87,SSE,157,0.0,4.8,66,0.00,,,0.00,WUHU21636XXSP,2013-07-21 23:23:00,
2013-07-21 18:28:00,73.4,61.6,29.87,ESE,112,0.0,0.0,66,0.00,,,0.00,WUHU21636XXSP,2013-07-21 23:28:00,
2013-07-21 18:33:00,73.3,61.9,29.87,SSE,157,0.0,0.0,67,0.00,,,0.00,WUHU21636XXSP,2013-07-21 23:33:00,
2013-07-21 18:38:00,73.3,62.3,29.87,SSE,157,0.0,0.0,68,0.00,,,0.00,WUHU21636XXSP,2013-07-21 23:38:00,
2013-07-21 18:43:00,72.9,61.9,29.87,SSE,157,0.0,0.0,68,0.00,,,0.00,WUHU21636XXSP,2013-07-21 23:43:00,
2013-07-21 18:48:00,72.7,62.5,29.87,SSE,157,0.0,0.0,70,0.00,,,0.00,WUHU21636XXSP,2013-07-21 23:48:00,
2013-07-21 18:53:00,72.4,62.3,29.87,SSE,157,0.0,0.0,70,0.00,,,0.00,WUHU21636XXSP,2013-07-21 23:53:00,
2013-07-21 18:58:00,72.7,62.9,29.87,SSE,157,0.0,0.0,71,0.00,,,0.00,WUHU21636XXSP,2013-07-21 23:58:00,
2013-07-21 19:03:00,72.7,63.3,29.87,SSE,157,0.0,0.0,72,0.00,,,0.00,WUHU21636XXSP,2013-07-22 00:03:00,
2013-07-21 19:08:00,72.4,62.7,29.87,SSE,157,0.0,0.0,71,0.00,,,0.00,WUHU21636XXSP,2013-07-22 00:08:00,
2013-07-21 19:13:00,72.4,62.7,29.87,East,90,0.0,4.0,71,0.00,,,0.00,WUHU21636XXSP,2013-07-22 00:13:00,
2013-07-21 19:18:00,72.1,62.0,29.87,East,90,6.2,6.2,70,0.00,,,0.00,WUHU21636XXSP,2013-07-22 00:18:00,
2013-07-21 19:23:00,71.9,62.2,29.88,SE,135,1.2,6.2,71,0.00,,,0.00,WUHU21636XXSP,2013-07-22 00:23:00,
2013-07-21 19:28:00,71.7,62.0,29.88,ENE,67,0.0,6.2,71,0.00,,,0.00,WUHU21636XXSP,2013-07-22 00:28:00,
2013-07-21 19:33:00,71.5,61.8,29.88,ESE,112,0.0,5.8,71,0.00,,,0.00,WUHU21636XXSP,2013-07-22 00:33:00,
2013-07-21 19:38:00,71.5,62.2,29.87,South,180,0.0,0.0,72,0.00,,,0.00,WUHU21636XXSP,2013-07-22 00:38:00,
2013-07-21 19:43:00,71.4,62.1,29.87,South,180,0.0,0.0,72,0.00,,,0.00,WUHU21636XXSP,2013-07-22 00:43:00,
2013-07-21 19:48:00,71.2,61.9,29.87,SW,225,0.0,0.0,72,0.00,,,0.00,WUHU21636XXSP,2013-07-22 00:48:00,
2013-07-21 19:53:00,71.0,62.0,29.87,SW,225,0.0,0.0,73,0.00,,,0.00,WUHU21636XXSP,2013-07-22 00:53:00,
2013-07-21 19:58:00,70.8,61.8,29.87,SW,225,0.0,0.0,73,0.00,,,0.00,WUHU21636XXSP,2013-07-22 00:58:00,
2013-07-21 20:03:00,70.6,62.0,29.87,SW,225,0.0,0.0,74,0.00,,,0.00,WUHU21636XXSP,2013-07-22 01:03:00,
2013-07-21 20:08:00,70.5,61.9,29.87,SW,225,0.0,0.0,74,0.00,,,0.00,WUHU21636XXSP,2013-07-22 01:08:00,
2013-07-21 20:13:00,70.5,61.9,29.87,SW,225,0.0,0.0,74,0.00,,,0.00,WUHU21636XXSP,2013-07-22 01:13:00,
2013-07-21 20:18:00,70.5,61.9,29.87,SW,225,0.0,0.0,74,0.00,,,0.00,WUHU21636XXSP,2013-07-22 01:18:00,
2013-07-21 20:23:00,70.2,62.1,29.87,SW,225,0.0,0.0,75,0.00,,,0.00,WUHU21636XXSP,2013-07-22 01:23:00,
2013-07-21 20:28:00,70.2,62.1,29.87,SW,225,0.0,0.0,75,0.00,,,0.00,WUHU21636XXSP,2013-07-22 01:28:00,
2013-07-21 20:33:00,69.8,61.7,29.87,SW,225,0.0,0.0,75,0.00,,,0.00,WUHU21636XXSP,2013-07-22 01:33:00,
2013-07-21 20:38:00,69.6,61.8,29.87,SW,225,0.0,0.0,76,0.00,,,0.00,WUHU21636XXSP,2013-07-22 01:38:00,
2013-07-21 20:43:00,69.6,61.8,29.87,SW,225,0.0,0.0,76,0.00,,,0.00,WUHU21636XXSP,2013-07-22 01:43:00,
2013-07-21 20:48:00,69.1,61.3,29.87,SW,225,0.0,0.0,76,0.00,,,0.00,WUHU21636XXSP,2013-07-22 01:48:00,
2013-07-21 20:53:00,69.1,61.3,29.87,SW,225,0.0,0.0,76,0.00,,,0.00,WUHU21636XXSP,2013-07-22 01:53:00,
2013-07-21 20:58:00,68.7,60.9,29.87,SW,225,0.0,0.0,76,0.00,,,0.00,WUHU21636XXSP,2013-07-22 01:58:00,
2013-07-21 21:03:00,68.7,60.9,29.87,SW,225,0.0,0.0,76,0.00,,,0.00,WUHU21636XXSP,2013-07-22 02:03:00,
2013-07-21 21:08:00,68.6,60.8,29.87,SW,225,0.0,0.0,76,0.00,,,0.00,WUHU21636XXSP,2013-07-22 02:08:00,
2013-07-21 21:13:00,68.4,61.0,29.87,SW,225,0.0,0.0,77,0.00,,,0.00,WUHU21636XXSP,2013-07-22 02:13:00,
2013-07-21 21:18:00,67.9,60.6,29.87,South,180,0.0,0.0,77,0.00,,,0.00,WUHU21636XXSP,2013-07-22 02:18:00,
2013-07-21 21:23:00,67.7,60.4,29.87,North,0,0.0,0.0,77,0.00,,,0.00,WUHU21636XXSP,2013-07-22 02:23:00,
2013-07-21 21:28:00,67.4,60.1,29.87,North,0,0.0,0.0,77,0.00,,,0.00,WUHU21636XXSP,2013-07-22 02:28:00,
2013-07-21 21:33:00,67.4,60.1,29.87,NW,315,0.0,0.0,77,0.00,,,0.00,WUHU21636XXSP,2013-07-22 02:33:00,
2013-07-21 21:38:00,67.2,60.2,29.88,NW,315,0.0,0.0,78,0.00,,,0.00,WUHU21636XXSP,2013-07-22 02:38:00,
2013-07-21 21:43:00,67.2,60.2,29.88,NW,315,0.0,0.0,78,0.00,,,0.00,WUHU21636XXSP,2013-07-22 02:43:00,
2013-07-21 21:48:00,67.0,60.0,29.88,NW,315,0.0,0.0,78,0.00,,,0.00,WUHU21636XXSP,2013-07-22 02:48:00,
2013-07-21 21:53:00,67.0,60.0,29.89,SSE,157,0.0,0.0,78,0.00,,,0.00,WUHU21636XXSP,2013-07-22 02:53:00,
2013-07-21 21:58:00,66.8,59.8,29.89,ESE,112,0.0,0.0,78,0.00,,,0.00,WUHU21636XXSP,2013-07-22 02:58:00,
2013-07-21 22:03:00,66.8,59.8,29.89,West,270,0.0,0.0,78,0.00,,,0.00,WUHU21636XXSP,2013-07-22 03:03:00,
2013-07-21 22:08:00,66.7,59.7,29.89,West,270,0.0,0.0,78,0.00,,,0.00,WUHU21636XXSP,2013-07-22 03:08:00,
2013-07-21 22:13:00,66.5,59.8,29.89,West,270,0.0,0.0,79,0.00,,,0.00,WUHU21636XXSP,2013-07-22 03:13:00,
2013-07-21 22:18:00,66.5,59.8,29.90,West,270,0.0,0.0,79,0.00,,,0.00,WUHU21636XXSP,2013-07-22 03:18:00,
2013-07-21 22:23:00,66.5,59.8,29.90,West,270,0.0,0.0,79,0.00,,,0.00,WUHU21636XXSP,2013-07-22 03:23:00,
2013-07-21 22:28:00,66.5,59.8,29.90,West,270,0.0,0.0,79,0.00,,,0.00,WUHU21636XXSP,2013-07-22 03:28:00,
2013-07-21 22:33:00,66.5,59.8,29.90,West,270,0.0,0.0,79,0.00,,,0.00,WUHU21636XXSP,2013-07-22 03:33:00,
2013-07-21 22:38:00,66.0,59.4,29.90,West,270,0.0,0.0,79,0.00,,,0.00,WUHU21636XXSP,2013-07-22 03:38:00,
2013-07-21 22:43:00,66.0,59.4,29.91,West,270,0.0,0.0,79,0.00,,,0.00,WUHU21636XXSP,2013-07-22 03:43:00,
2013-07-21 22:48:00,66.0,59.4,29.91,West,270,0.0,0.0,79,0.00,,,0.00,WUHU21636XXSP,2013-07-22 03:48:00,
2013-07-21 22:53:00,65.8,59.2,29.90,West,270,0.0,0.0,79,0.00,,,0.00,WUHU21636XXSP,2013-07-22 03:53:00,
2013-07-21 22:58:00,65.8,59.2,29.90,West,270,0.0,0.0,79,0.00,,,0.00,WUHU21636XXSP,2013-07-22 03:58:00,
2013-07-21 23:01:00,65.8,59.2,29.90,West,270,0.0,0.0,79,0.00,,,0.00,WUHU21636XXSP,2013-07-22 04:01:00,
2013-07-21 23:02:00,65.5,58.9,29.89,West,270,0.0,0.0,79,0.00,,,0.00,WUHU21636XXSP,2013-07-22 04:02:00,
2013-07-21 23:07:00,65.5,58.9,29.89,West,270,0.0,0.0,79,0.00,,,0.00,WUHU21636XXSP,2013-07-22 04:07:00,
2013-07-21 23:12:00,65.5,58.9,29.89,West,270,0.0,0.0,79,0.00,,,0.00,WUHU21636XXSP,2013-07-22 04:12:00,
2013-07-21 23:17:00,65.5,59.3,29.89,West,270,0.0,0.0,80,0.00,,,0.00,WUHU21636XXSP,2013-07-22 04:17:00,
2013-07-21 23:22:00,65.3,59.1,29.89,West,270,0.0,0.0,80,0.00,,,0.00,WUHU21636XXSP,2013-07-22 04:22:00,
2013-07-21 23:27:00,65.1,58.8,29.89,West,270,0.0,0.0,80,0.00,,,0.00,WUHU21636XXSP,2013-07-22 04:27:00,
2013-07-21 23:32:00,65.1,58.8,29.89,West,270,0.0,0.0,80,0.00,,,0.00,WUHU21636XXSP,2013-07-22 04:32:00,
2013-07-21 23:37:00,65.1,58.8,29.89,West,270,0.0,0.0,80,0.00,,,0.00,WUHU21636XXSP,2013-07-22 04:37:00,
2013-07-21 23:42:00,65.1,58.8,29.88,West,270,0.0,0.0,80,0.00,,,0.00,WUHU21636XXSP,2013-07-22 04:42:00,
2013-07-21 23:47:00,64.9,58.6,29.88,West,270,0.0,0.0,80,0.00,,,0.00,WUHU21636XXSP,2013-07-22 04:47:00,
2013-07-21 23:52:00,64.8,58.5,29.88,West,270,0.0,0.0,80,0.00,,,0.00,WUHU21636XXSP,2013-07-22 04:52:00,
2013-07-21 23:57:00,64.6,58.3,29.88,West,270,0.0,0.0,80,0.00,,,0.00,WUHU21636XXSP,2013-07-22 04:57:00,